Date,TemperatureHighF,TemperatureAvgF,TemperatureLowF,DewpointHighF,DewpointAvgF,DewpointLowF,HumidityHigh,HumidityAvg,HumidityLow,PressureMaxIn,PressureMinIn,WindSpeedMaxMPH,WindSpeedAvgMPH,GustSpeedMaxMPH,PrecipitationSumIn
2012-1-1,62,53,44,44,41,38,83,65,47,30.21,30.11,9,2,17,0.00
2012-1-2,56,52,44,53,50,40,98,92,83,30.34,30.17,12,2,16,0.00
2012-1-3,59,48,39,51,47,39,99,94,74,30.38,30.29,9,2,9,0.00
2012-1-4,62,48,39,53,45,38,100,92,69,30.43,30.29,6,1,7,0.01
2012-1-5,58,47,39,53,46,39,100,94,82,30.35,30.18,11,2,18,0.01
2012-1-6,54,43,36,49,42,35,100,96,79,30.24,30.14,6,2,11,0.01
2012-1-7,65,45,32,49,38,26,100,81,29,30.30,30.16,9,2,15,0.01
2012-1-8,61,44,32,44,34,29,88,72,43,30.27,30.18,6,2,8,0.00
2012-1-9,60,40,30,47,35,28,97,84,56,30.29,30.17,11,2,12,0.00
2012-1-10,63,43,31,47,38,31,100,85,42,30.21,30.10,11,2,13,0.00
2012-1-11,61,43,30,50,40,30,99,90,55,30.18,30.05,10,2,10,0.01
2012-1-12,60,42,30,49,38,30,100,88,62,30.16,30.05,6,2,7,0.01
2012-1-13,66,45,31,42,34,30,99,72,30,30.24,30.15,8,1,15,0.01
2012-1-14,62,43,31,48,38,30,99,86,46,30.23,30.12,8,2,12,0.00
2012-1-15,52,47,40,46,40,32,99,78,63,30.22,30.05,17,5,29,0.00
2012-1-16,50,42,32,37,32,26,86,68,50,30.37,30.21,9,3,16,0.00
2012-1-17,50,36,25,39,32,24,96,85,61,30.47,30.36,7,2,9,0.00
2012-1-18,52,43,30,45,39,29,98,88,74,30.43,30.29,10,2,11,0.00
2012-1-19,52,50,47,51,49,46,98,96,92,30.22,30.02,14,6,22,0.42
2012-1-20,57,54,52,56,53,51,99,98,97,30.03,29.71,26,8,39,2.24
2012-1-21,53,49,41,53,45,39,98,89,74,30.18,29.73,21,6,27,0.06
2012-1-22,53,48,41,52,47,40,99,95,90,30.20,29.78,21,6,30,0.88
2012-1-23,56,52,45,55,50,43,99,93,86,30.18,29.64,28,7,33,0.12
2012-1-24,53,47,42,50,46,41,99,94,83,30.45,30.18,5,1,8,0.12
2012-1-25,60,53,49,56,52,48,100,95,85,30.46,30.35,7,2,11,0.01
2012-1-26,54,52,48,54,52,48,100,100,99,30.37,30.26,5,1,8,0.03
2012-1-27,57,45,35,51,44,34,100,95,79,30.31,30.23,4,1,7,0.01
2012-1-28,60,42,30,46,36,30,99,83,50,30.38,30.27,6,2,10,0.01
2012-1-29,62,48,35,52,44,34,99,85,61,30.31,30.15,9,2,11,0.01
2012-1-30,54,49,41,51,48,41,99,95,88,30.17,30.03,9,2,13,0.00
2012-1-31,52,48,43,49,46,42,98,92,84,30.22,30.10,10,3,13,0.00
2012-2-1,55,49,40,53,48,40,99,95,86,30.31,30.20,8,2,11,0.02
2012-2-2,59,45,36,52,43,35,100,93,72,30.27,29.98,5,1,7,0.01
2012-2-3,63,47,36,50,42,34,100,86,35,30.08,30.00,8,2,10,0.01
2012-2-4,64,48,36,48,39,35,99,75,42,30.12,30.06,11,1,16,0.01
2012-2-5,66,49,35,47,37,34,99,70,33,30.14,30.00,10,2,12,0.00
2012-2-6,62,54,49,48,41,37,87,62,43,29.99,29.77,10,2,24,0.14
2012-2-7,53,51,45,51,49,44,97,92,86,30.13,29.76,7,2,16,0.18
2012-2-8,62,47,38,54,45,38,100,93,63,30.27,30.12,6,1,9,0.19
2012-2-9,66,48,38,54,45,37,100,91,63,30.30,30.15,8,1,9,0.01
2012-2-10,58,50,40,56,50,39,100,96,90,30.21,30.10,12,4,15,0.11
2012-2-11,56,51,45,53,50,43,99,94,85,30.12,30.03,11,4,15,0.12
2012-2-12,53,46,38,50,45,38,100,94,81,30.11,29.97,19,3,23,0.24
2012-2-13,54,49,42,48,45,40,96,86,78,30.04,29.94,16,7,26,0.04
2012-2-14,54,46,34,50,42,34,99,89,73,30.15,30.03,15,3,21,0.06
2012-2-15,56,46,34,46,39,32,96,79,49,30.22,30.09,12,5,20,0.06
2012-2-16,60,43,31,49,39,30,99,89,42,30.32,30.21,6,2,11,0.01
2012-2-17,54,47,38,52,46,38,99,97,91,30.30,30.20,9,2,14,0.01
2012-2-18,55,50,43,50,45,36,99,84,70,30.24,30.15,12,5,23,0.00
2012-2-19,52,46,40,44,40,35,92,79,61,30.19,30.09,10,3,15,0.00
2012-2-20,56,50,46,51,48,44,98,93,83,30.25,30.11,8,2,10,0.02
2012-2-21,58,49,40,54,48,40,99,95,83,30.34,30.23,6,1,11,0.00
2012-2-22,60,49,39,55,47,39,100,94,76,30.32,30.14,17,5,25,0.01
2012-2-23,59,49,40,50,45,40,99,88,67,30.13,30.00,11,3,16,0.01
2012-2-24,64,49,37,51,44,37,99,85,60,30.24,30.02,13,3,25,0.01
2012-2-25,54,48,35,46,41,32,89,77,55,30.40,30.23,14,7,22,0.00
2012-2-26,50,40,29,42,35,28,97,83,58,30.24,29.89,13,3,19,0.00
2012-2-27,51,42,29,41,36,28,97,82,66,30.00,29.85,13,4,21,0.01
2012-2-28,51,47,36,49,41,33,96,80,62,30.25,30.01,27,8,36,0.02
2012-2-29,51,48,39,50,45,39,98,91,78,30.27,30.06,24,8,34,0.25
2012-3-1,53,46,38,49,44,37,99,91,76,30.29,30.22,16,6,22,0.03
2012-3-2,58,43,31,46,38,30,99,84,44,30.40,30.29,9,2,13,0.01
2012-3-3,65,44,33,48,38,31,97,81,45,30.38,30.27,9,2,13,0.01
2012-3-4,71,49,36,52,43,35,99,83,34,30.26,30.10,8,2,13,0.00
2012-3-5,50,45,38,49,44,38,100,96,90,30.14,30.06,12,3,15,0.00
2012-3-6,52,46,34,49,39,31,99,78,59,30.12,30.00,20,6,33,0.01
2012-3-7,56,43,32,41,32,22,90,67,29,30.23,30.12,10,3,14,0.00
2012-3-8,60,46,30,49,40,30,98,82,49,30.36,30.22,6,2,7,0.00
2012-3-9,62,45,31,50,40,30,97,85,58,30.36,30.18,8,2,11,0.00
2012-3-10,52,48,39,49,46,38,100,93,87,30.18,30.04,10,4,14,0.00
2012-3-11,55,49,38,50,45,37,97,89,70,30.10,30.04,12,4,17,0.05
2012-3-12,56,46,34,50,42,33,100,89,68,30.08,29.92,16,5,30,0.03
2012-3-13,53,52,52,52,51,51,98,97,91,29.97,29.85,27,12,32,1.84
2012-3-14,56,53,52,56,53,51,100,99,96,30.12,29.96,18,6,26,0.69
2012-3-15,58,55,53,57,54,53,100,97,92,30.15,30.05,11,5,17,0.01
2012-3-16,55,53,49,54,52,46,100,98,88,30.06,29.75,20,9,29,0.72
2012-3-17,52,46,38,46,42,37,100,86,66,29.75,29.58,13,5,25,0.01
2012-3-18,50,46,42,42,39,33,88,75,57,29.99,29.69,20,6,25,0.02
2012-3-19,51,44,36,41,36,32,90,74,50,30.11,29.98,10,3,13,0.00
2012-3-20,58,51,46,51,46,40,94,84,72,30.22,30.11,9,2,11,0.00
2012-3-21,60,53,46,56,52,46,99,94,84,30.20,30.01,9,2,11,0.00
2012-3-22,53,50,46,53,45,41,98,84,70,30.04,29.97,17,5,21,0.00
2012-3-23,56,47,35,46,41,34,98,80,52,30.11,29.87,16,4,20,0.00
2012-3-24,52,46,42,46,43,41,97,91,68,29.94,29.83,16,2,25,1.07
2012-3-25,55,47,42,47,44,41,97,88,63,29.93,29.81,11,3,13,1.19
2012-3-26,55,48,36,47,43,35,98,85,72,30.10,29.93,17,6,25,0.00
2012-3-27,54,52,50,53,50,47,98,93,84,30.01,29.86,20,11,37,0.46
2012-3-28,61,55,47,53,50,45,97,86,57,30.12,29.94,20,7,23,0.46
2012-3-29,57,52,45,53,50,44,99,94,84,30.14,30.07,11,4,16,0.01
2012-3-30,59,55,53,56,54,53,99,96,89,30.11,29.89,16,6,21,0.01
2012-3-31,57,53,48,55,49,45,98,88,71,30.07,29.71,29,13,50,0.42
2012-4-1,55,50,41,45,43,38,93,77,66,30.34,30.07,16,6,25,0.42
2012-4-2,58,48,38,49,44,37,98,88,64,30.31,30.09,7,2,17,0.00
2012-4-3,61,52,45,52,49,44,98,90,70,30.13,30.03,13,4,22,0.08
2012-4-4,54,48,39,46,42,37,96,80,65,30.25,30.13,14,4,20,0.08
2012-4-5,52,46,37,42,39,35,94,76,64,30.22,30.14,16,6,26,0.00
2012-4-6,54,45,33,43,38,32,96,79,55,30.31,30.19,10,3,13,0.00
2012-4-7,61,45,32,45,39,31,98,81,50,30.20,30.05,10,2,14,0.00
2012-4-8,56,45,33,50,42,33,99,88,61,30.11,30.02,9,3,12,0.01
2012-4-9,64,52,42,53,48,41,98,86,46,30.05,29.83,15,3,28,0.01
2012-4-10,54,53,51,53,51,49,97,94,85,29.90,29.82,14,4,20,0.32
2012-4-11,56,53,50,51,50,49,99,90,80,29.96,29.82,25,9,33,0.32
2012-4-12,57,52,46,51,48,44,95,85,64,30.04,29.75,25,9,42,0.42
2012-4-13,54,50,44,48,46,43,99,85,74,29.91,29.73,18,6,22,0.06
2012-4-14,58,52,44,51,46,40,98,82,68,30.15,29.91,13,5,18,0.06
2012-4-15,56,51,48,52,49,47,97,92,85,30.26,30.15,12,4,16,0.00
2012-4-16,56,52,46,52,50,45,98,92,85,30.27,30.20,9,3,12,0.00
2012-4-17,58,53,48,54,52,47,99,95,86,30.21,30.12,10,4,14,0.00
2012-4-18,60,54,49,55,51,47,99,90,73,30.20,30.13,14,4,16,0.00
2012-4-19,62,56,52,58,55,52,99,95,87,30.20,30.11,11,3,13,0.00
2012-4-20,62,55,49,58,52,48,100,91,73,30.10,29.98,8,2,12,0.00
2012-4-21,65,54,46,57,51,45,100,92,76,30.00,29.88,7,2,9,0.00
2012-4-22,65,55,48,60,54,47,100,95,82,29.94,29.88,22,6,24,0.00
2012-4-23,58,56,54,55,54,52,97,93,87,30.01,29.93,16,7,24,0.03
2012-4-24,65,59,54,58,56,53,96,89,74,30.06,29.98,17,5,19,0.03
2012-4-25,64,58,53,59,56,52,98,92,82,30.02,29.78,10,3,15,0.00
2012-4-26,58,55,52,56,51,47,99,86,72,30.23,29.80,18,8,21,0.03
2012-4-27,59,52,42,52,47,41,96,83,68,30.27,30.16,19,5,22,0.03
2012-4-28,58,54,48,54,50,47,95,88,81,30.17,29.92,15,4,23,0.00
2012-4-29,61,53,45,57,50,44,99,92,82,29.95,29.90,11,3,13,0.00
2012-4-30,61,53,48,57,51,47,98,91,77,30.00,29.93,14,4,24,0.00
2012-5-1,56,51,47,50,47,45,96,87,76,29.97,29.89,17,6,27,0.00
2012-5-2,56,50,41,49,46,40,95,86,73,30.01,29.91,18,6,20,0.00
2012-5-3,57,52,44,55,51,43,98,96,93,30.12,29.96,16,6,23,0.07
2012-5-4,57,52,47,50,48,44,98,86,75,30.23,30.12,17,6,23,0.07
2012-5-5,59,50,39,52,46,38,98,86,71,30.25,30.09,11,3,15,0.00
2012-5-6,68,52,40,54,47,39,98,86,58,30.11,30.03,8,2,11,0.01
2012-5-7,63,52,41,57,49,40,99,90,78,30.06,29.98,7,2,11,0.01
2012-5-8,62,52,44,58,50,43,99,92,81,29.99,29.94,11,2,13,0.00
2012-5-9,59,52,47,54,49,46,98,90,79,29.99,29.92,9,3,17,0.00
2012-5-10,64,52,42,55,48,41,98,86,60,29.95,29.87,9,4,12,0.01
2012-5-11,68,54,41,58,50,41,99,87,67,29.98,29.88,7,2,10,0.01
2012-5-12,59,52,47,55,50,46,100,95,86,30.07,29.98,11,4,14,0.00
2012-5-13,59,54,50,54,51,49,96,91,82,30.11,30.06,18,8,21,0.00
2012-5-14,62,56,50,56,53,49,98,91,72,30.11,30.06,12,4,13,0.11
2012-5-15,55,51,48,52,50,48,100,96,87,30.09,30.04,12,5,16,0.11
2012-5-16,53,51,49,52,50,49,100,97,93,30.07,29.96,10,5,14,0.00
2012-5-17,55,52,49,52,49,47,100,91,83,29.97,29.87,17,7,25,0.00
2012-5-18,58,52,42,52,48,41,97,86,73,30.02,29.93,9,4,14,0.00
2012-5-19,60,51,41,53,47,40,100,86,72,30.02,29.95,12,3,13,0.00
2012-5-20,60,54,44,54,50,42,97,87,76,30.03,29.96,14,4,16,0.00
2012-5-21,56,52,49,54,52,49,100,98,95,30.13,30.02,11,3,13,0.00
2012-5-22,59,54,51,55,52,50,100,93,73,30.18,30.09,12,5,28,0.00
2012-5-23,57,53,50,51,50,48,97,87,78,30.08,29.96,17,8,28,0.00
2012-5-24,58,53,46,53,49,45,94,86,77,29.96,29.80,18,7,28,0.00
2012-5-25,58,52,49,52,48,46,95,86,78,29.85,29.77,19,6,25,0.00
2012-5-26,57,52,44,53,49,43,99,91,83,30.09,29.85,18,5,21,0.00
2012-5-27,58,53,49,53,50,48,97,90,81,30.18,30.09,15,5,17,0.00
2012-5-28,58,54,50,54,50,47,99,90,73,30.10,30.03,19,5,22,0.00
2012-5-29,59,54,48,54,50,47,96,89,80,30.08,30.03,8,3,13,0.00
2012-5-30,61,54,49,56,51,47,97,90,80,30.12,30.05,10,4,13,0.00
2012-5-31,65,55,44,58,52,44,98,88,71,30.06,29.86,9,3,11,0.00
2012-6-1,62,56,51,57,53,50,98,91,81,29.88,29.81,9,4,17,0.00
2012-6-2,59,53,51,56,53,51,100,97,88,29.99,29.86,14,5,21,0.00
2012-6-3,60,54,50,55,52,50,100,93,82,29.99,29.93,11,4,16,0.00
2012-6-4,59,55,50,57,53,48,97,92,82,30.13,29.89,19,7,23,0.01
2012-6-5,59,53,44,50,48,43,99,84,70,30.22,30.13,16,5,20,0.01
2012-6-6,58,52,43,51,47,42,97,85,76,30.15,30.00,14,5,23,0.00
2012-6-7,62,55,48,58,52,46,97,91,79,30.06,29.99,16,4,19,0.00
2012-6-8,60,53,44,53,48,43,99,84,68,30.04,29.96,16,5,27,0.00
2012-6-9,60,53,44,52,48,41,95,82,70,30.04,29.91,13,5,24,0.00
2012-6-10,66,54,41,57,49,40,98,83,64,29.94,29.89,6,2,10,0.00
2012-6-11,63,54,44,56,50,44,100,86,74,29.99,29.89,8,3,12,0.00
2012-6-12,62,54,46,56,52,45,98,91,77,30.02,29.94,15,4,24,0.00
2012-6-13,60,54,49,55,51,48,99,90,79,29.94,29.78,12,4,17,0.00
2012-6-14,60,53,46,54,50,45,98,87,75,29.85,29.78,22,4,24,0.00
2012-6-15,62,55,46,54,50,44,96,84,73,29.84,29.79,9,4,19,0.00
2012-6-16,68,58,47,59,53,46,98,85,68,29.86,29.78,9,3,12,0.00
2012-6-17,67,58,50,58,54,48,99,89,71,29.92,29.77,20,6,24,0.00
2012-6-18,57,54,51,53,51,48,99,91,82,29.93,29.81,16,9,22,0.00
2012-6-19,64,54,45,56,51,44,97,87,74,29.95,29.84,13,4,16,0.00
2012-6-20,66,55,46,58,52,45,99,88,73,29.86,29.82,10,3,13,0.00
2012-6-21,56,53,50,53,51,50,98,93,88,29.98,29.82,19,10,22,0.00
2012-6-22,61,55,51,56,53,49,98,94,83,29.99,29.90,16,8,19,0.01
2012-6-23,59,55,50,55,52,49,98,90,76,29.96,29.88,13,5,15,0.01
2012-6-24,60,55,49,54,52,47,99,88,73,30.08,29.94,14,5,17,0.01
2012-6-25,63,56,47,57,53,46,99,90,71,30.10,30.04,13,4,16,0.01
2012-6-26,63,57,46,57,53,46,100,88,74,30.08,29.91,14,4,20,0.01
2012-6-27,64,56,46,57,52,46,99,89,77,29.96,29.89,13,4,14,0.01
2012-6-28,64,56,49,58,54,47,99,93,79,30.11,29.96,14,4,15,0.00
2012-6-29,62,57,53,59,56,53,100,97,87,30.13,30.05,11,4,14,0.01
2012-6-30,65,59,54,62,58,54,100,98,91,30.05,29.95,10,4,12,0.01
2012-7-1,61,58,54,60,58,53,100,98,92,29.98,29.88,10,5,14,0.00
2012-7-2,62,56,52,57,54,51,98,91,82,29.92,29.86,11,4,19,0.00
2012-7-3,62,56,49,56,52,48,97,88,77,29.93,29.83,8,3,14,0.00
2012-7-4,62,55,46,57,52,45,98,90,80,29.88,29.82,20,7,25,0.00
2012-7-5,61,55,50,55,52,50,98,91,81,30.01,29.88,20,6,23,0.00
2012-7-6,61,55,47,56,53,46,99,91,78,30.04,29.98,10,3,14,0.00
2012-7-7,61,54,46,57,52,46,100,95,85,30.01,29.97,11,4,13,0.00
2012-7-8,57,53,50,55,52,50,100,98,91,30.07,29.99,11,6,14,0.00
2012-7-9,60,54,50,56,53,50,100,96,85,30.07,29.97,10,4,14,0.00
2012-7-10,62,54,49,57,52,49,100,94,83,29.98,29.87,9,4,13,0.00
2012-7-11,62,54,50,57,53,50,100,94,82,29.91,29.84,12,5,13,0.00
2012-7-12,60,54,50,56,53,50,100,94,83,29.88,29.82,13,5,14,0.00
2012-7-13,55,52,50,54,51,50,99,96,92,29.95,29.85,15,6,17,0.00
2012-7-14,57,54,51,55,52,51,100,96,90,29.98,29.89,13,4,14,0.00
2012-7-15,62,55,52,58,54,51,100,95,84,29.94,29.86,14,6,19,0.00
2012-7-16,57,54,52,56,54,51,100,96,87,29.93,29.83,16,9,19,0.00
2012-7-17,61,56,50,58,55,49,100,95,83,30.01,29.91,14,6,17,0.03
2012-7-18,62,57,49,57,54,48,100,91,77,30.04,29.98,13,4,15,0.04
2012-7-19,64,58,52,60,57,52,100,95,83,30.07,29.98,10,4,14,0.00
2012-7-20,65,58,50,59,56,49,99,91,79,30.10,30.01,8,3,13,0.00
2012-7-21,66,57,48,61,54,48,100,90,76,30.01,29.91,9,3,12,0.00
2012-7-22,64,58,52,59,55,52,98,90,80,29.93,29.86,15,6,18,0.00
2012-7-23,67,59,53,58,55,51,94,86,70,29.94,29.88,17,6,21,0.00
2012-7-24,63,59,56,57,55,54,93,89,81,29.99,29.94,16,8,19,0.00
2012-7-25,63,58,55,57,55,53,96,90,78,30.02,29.96,17,7,19,0.00
2012-7-26,62,56,53,57,54,52,97,93,83,30.01,29.96,12,6,17,0.00
2012-7-27,63,56,52,58,54,51,99,95,84,30.03,29.98,13,6,19,0.00
2012-7-28,62,57,53,58,55,53,100,94,84,30.09,30.00,12,5,15,0.00
2012-7-29,63,56,52,58,54,52,100,94,81,30.05,29.98,10,4,14,0.00
2012-7-30,63,56,50,59,54,49,99,92,81,30.00,29.91,11,3,12,0.00
2012-7-31,64,55,47,58,53,46,100,92,79,30.00,29.93,12,5,14,0.00
2012-8-1,62,54,49,58,53,48,99,95,85,30.08,29.98,11,4,14,0.00
2012-8-2,59,54,50,57,53,50,99,96,90,30.02,29.91,10,5,15,0.00
2012-8-3,64,56,52,58,54,52,99,93,80,29.91,29.84,18,6,21,0.00
2012-8-4,60,56,50,58,55,50,100,98,91,29.98,29.86,12,5,16,0.00
2012-8-5,61,58,56,60,57,55,100,96,87,30.10,29.98,10,4,12,0.03
2012-8-6,65,59,55,58,56,54,96,90,77,30.15,30.06,11,4,14,0.03
2012-8-7,63,57,49,57,54,48,100,90,78,30.10,29.99,11,4,16,0.00
2012-8-8,65,55,46,58,52,46,100,91,75,30.03,29.94,9,3,12,0.01
2012-8-9,63,55,48,57,53,47,99,93,81,29.96,29.85,11,4,14,0.01
2012-8-10,58,52,47,55,51,47,100,97,89,29.88,29.79,11,4,12,0.00
2012-8-11,59,53,48,56,52,48,100,96,84,29.86,29.76,9,4,12,0.00
2012-8-12,58,52,49,55,52,49,100,97,86,29.91,29.83,9,4,11,0.00
2012-8-13,59,52,49,56,52,49,100,97,87,29.88,29.80,9,4,12,0.00
2012-8-14,64,57,50,60,56,51,100,95,82,29.85,29.80,13,6,17,0.00
2012-8-15,61,57,55,57,56,55,100,94,86,29.92,29.82,14,6,14,0.00
2012-8-16,61,57,54,58,55,53,99,95,85,29.98,29.92,10,3,12,0.00
2012-8-17,60,56,53,57,55,53,100,97,89,30.03,29.94,10,4,16,0.00
2012-8-18,60,56,52,56,54,51,99,95,88,30.01,29.93,10,4,15,0.00
2012-8-19,58,54,51,56,53,51,100,97,92,30.02,29.93,11,5,14,0.00
2012-8-20,60,53,49,57,52,49,100,97,85,29.97,29.89,11,5,14,0.00
2012-8-21,61,54,50,58,53,50,100,96,86,29.95,29.88,12,5,16,0.00
2012-8-22,57,54,51,55,53,51,100,98,93,29.96,29.89,12,5,14,0.00
2012-8-23,59,54,52,56,54,51,100,97,88,29.98,29.87,9,3,14,0.00
2012-8-24,63,55,51,57,53,50,100,94,81,29.93,29.86,16,5,23,0.00
2012-8-25,56,53,51,54,52,51,100,97,88,29.91,29.84,12,7,16,0.00
2012-8-26,62,56,49,56,53,48,97,89,77,30.02,29.86,14,6,17,0.00
2012-8-27,64,58,50,60,56,49,99,94,85,30.07,29.97,8,2,13,0.00
2012-8-28,66,56,48,58,53,47,100,88,73,30.06,29.95,9,2,12,0.01
2012-8-29,68,56,43,60,52,43,100,89,71,29.96,29.80,10,2,12,0.01
2012-8-30,59,53,46,56,52,46,100,96,90,29.86,29.78,13,6,18,0.01
2012-8-31,59,55,53,55,53,52,99,93,86,29.98,29.84,16,7,21,0.00
2012-9-1,62,54,51,58,53,51,99,95,84,30.05,29.97,10,3,15,0.00
2012-9-2,61,53,46,57,51,46,100,95,83,30.02,29.93,7,2,9,0.00
2012-9-3,62,53,44,58,51,44,100,95,83,30.00,29.92,9,3,13,0.00
2012-9-4,59,54,50,56,53,51,100,97,85,30.04,29.98,10,5,15,0.00
2012-9-5,58,54,52,56,54,51,100,96,88,30.02,29.95,9,3,12,0.00
2012-9-6,59,56,54,55,53,51,96,89,82,30.04,29.97,10,4,12,0.00
2012-9-7,63,57,50,55,52,48,94,85,73,30.12,30.03,10,3,13,0.00
2012-9-8,60,56,54,55,53,52,95,90,82,30.10,29.98,13,4,16,0.00
2012-9-9,63,55,44,57,52,43,100,90,77,30.03,29.91,12,4,21,0.00
2012-9-10,65,56,48,58,54,47,100,92,74,29.95,29.83,9,3,12,0.00
2012-9-11,69,57,47,61,54,47,99,90,74,29.96,29.83,19,5,21,0.00
2012-9-12,64,56,50,59,54,49,99,93,83,30.09,29.95,12,3,14,0.00
2012-9-13,61,54,50,56,53,50,100,96,83,30.13,30.05,9,2,11,0.00
2012-9-14,61,56,52,56,54,52,100,94,83,30.14,30.04,9,3,11,0.00
2012-9-15,58,53,50,55,52,50,100,96,87,30.14,30.02,9,3,12,0.00
2012-9-16,57,53,50,54,52,50,100,96,88,30.08,30.00,9,3,11,0.00
2012-9-17,59,54,52,54,52,50,95,90,83,30.09,30.02,9,5,13,0.00
2012-9-18,61,55,51,55,52,49,95,89,78,30.14,30.05,13,4,15,0.00
2012-9-19,61,56,53,55,53,51,96,90,80,30.14,30.06,12,5,17,0.00
2012-9-20,60,52,43,55,50,43,100,90,78,30.10,30.00,9,3,15,0.00
2012-9-21,63,54,44,57,50,44,100,89,71,30.02,29.91,10,2,12,0.01
2012-9-22,64,52,42,57,49,42,100,92,75,29.96,29.89,8,2,12,0.01
2012-9-23,61,51,43,56,50,43,100,96,82,30.00,29.90,11,2,13,0.01
2012-9-24,60,54,48,57,53,48,99,96,87,29.99,29.90,9,2,12,0.00
2012-9-25,61,52,45,57,52,45,100,97,86,29.95,29.88,12,3,13,0.00
2012-9-26,59,53,51,55,52,50,100,96,87,29.92,29.86,9,4,12,0.00
2012-9-27,62,53,49,57,52,49,100,97,85,29.96,29.87,8,3,10,0.00
2012-9-28,58,53,50,56,53,50,100,98,90,30.00,29.89,12,5,15,0.00
2012-9-29,58,53,50,55,52,50,100,97,86,30.06,29.98,8,3,11,0.00
2012-9-30,64,54,44,58,52,44,100,92,72,30.08,29.98,7,2,8,0.00
2012-10-1,76,58,46,61,51,45,99,79,47,30.01,29.89,6,2,9,0.00
2012-10-2,74,58,47,59,51,43,95,80,50,29.89,29.79,6,2,8,0.00
2012-10-3,80,60,48,60,54,47,97,85,39,30.00,29.80,18,6,26,0.00
2012-10-4,62,59,58,58,56,54,94,89,80,30.15,30.00,14,7,19,0.00
2012-10-5,64,59,51,59,56,50,98,91,83,30.16,30.08,7,2,10,0.00
2012-10-6,64,57,48,57,54,48,100,91,72,30.08,29.99,9,3,11,0.00
2012-10-7,62,56,49,57,54,49,99,95,82,30.03,29.97,9,3,13,0.00
2012-10-8,63,54,43,59,52,43,100,93,79,30.07,30.01,10,2,14,0.01
2012-10-9,64,57,50,59,55,50,100,92,78,30.04,29.96,9,2,12,0.01
2012-10-10,62,57,55,56,54,53,96,91,82,29.97,29.91,12,4,13,0.00
2012-10-11,56,55,53,54,53,52,98,93,89,29.98,29.89,11,5,15,0.01
2012-10-12,61,55,49,55,52,48,97,90,78,30.24,29.97,6,2,9,0.01
2012-10-13,68,56,45,60,53,45,100,90,65,30.33,30.19,9,2,12,0.01
2012-10-14,64,57,54,61,57,54,100,97,88,30.23,30.08,9,2,16,0.01
2012-10-15,68,59,48,62,57,48,100,94,73,30.10,29.97,12,2,16,0.01
2012-10-16,63,59,50,61,58,50,100,96,87,30.02,29.89,10,3,14,0.00
2012-10-17,67,54,44,60,51,44,100,89,70,29.93,29.83,6,2,9,0.01
2012-10-18,85,62,44,63,53,42,94,76,31,30.02,29.87,13,4,21,0.01
2012-10-19,64,60,55,63,59,54,99,96,93,30.06,29.94,10,4,16,0.00
2012-10-20,62,55,51,58,53,48,100,92,81,29.94,29.81,16,4,22,0.00
2012-10-21,59,53,45,54,48,42,97,84,67,29.96,29.83,13,4,17,0.05
2012-10-22,59,55,49,54,52,48,99,90,73,29.94,29.69,15,7,28,0.90
2012-10-23,60,53,44,53,49,44,99,87,63,30.06,29.93,9,3,13,0.92
2012-10-24,60,56,50,55,52,48,99,88,71,30.21,30.02,10,3,13,0.03
2012-10-25,64,55,45,56,52,44,98,90,70,30.27,30.19,12,3,13,0.12
2012-10-26,64,53,42,56,50,41,100,89,58,30.26,30.11,8,2,13,0.01
2012-10-27,68,56,48,61,54,48,100,93,74,30.11,29.96,6,1,11,0.01
2012-10-28,61,55,48,58,54,48,100,97,87,30.04,29.98,9,2,11,0.01
2012-10-29,64,54,46,61,54,46,100,98,84,30.13,30.04,7,2,13,0.01
2012-10-30,59,54,49,58,54,49,100,99,96,30.09,29.98,6,1,8,0.01
2012-10-31,61,58,56,58,57,56,100,97,87,30.01,29.96,14,3,22,0.62
2012-11-1,63,57,49,60,56,49,100,96,85,30.07,30.00,9,2,13,0.62
2012-11-2,63,52,44,55,50,44,100,93,63,30.11,30.05,6,1,10,0.01
2012-11-3,68,55,46,59,52,46,100,91,63,30.16,30.07,9,2,11,0.01
2012-11-4,69,56,48,62,54,48,100,93,74,30.21,30.13,6,1,10,0.01
2012-11-5,83,61,48,64,54,48,100,82,38,30.14,30.02,8,1,15,0.01
2012-11-6,75,58,48,62,54,48,100,88,60,30.07,29.99,8,1,12,0.01
2012-11-7,57,55,53,56,54,51,100,97,89,30.06,29.95,12,4,15,0.01
2012-11-8,56,51,40,51,46,39,99,84,70,29.97,29.89,13,4,18,0.13
2012-11-9,54,46,36,48,42,35,100,89,69,30.01,29.91,16,3,16,0.32
2012-11-10,56,46,36,47,41,36,100,87,66,30.27,30.01,11,2,15,0.01
2012-11-11,56,43,33,48,40,33,100,90,67,30.41,30.27,7,2,9,0.01
2012-11-12,60,46,37,48,41,36,99,83,51,30.41,30.27,8,2,10,0.01
2012-11-13,65,49,38,52,44,37,98,83,41,30.29,30.09,9,2,13,0.00
2012-11-14,66,53,44,55,48,42,98,84,64,30.14,30.01,8,2,12,0.00
2012-11-15,66,58,48,55,51,43,97,80,45,30.03,29.96,11,3,17,0.00
2012-11-16,60,57,55,57,55,53,99,90,81,30.00,29.85,7,2,14,1.37
2012-11-17,59,57,49,58,56,48,100,96,85,30.02,29.79,16,6,22,0.70
2012-11-18,59,51,40,53,48,40,100,91,75,30.18,30.03,11,2,12,0.01
2012-11-19,62,58,54,57,54,51,95,87,78,30.23,30.14,12,5,20,0.01
2012-11-20,60,59,58,59,58,57,98,97,95,30.14,29.99,16,8,28,0.69
2012-11-21,61,56,42,58,53,41,98,90,73,30.23,30.03,8,3,12,0.69
2012-11-22,61,46,38,52,44,38,100,92,67,30.30,30.21,6,1,11,0.01
2012-11-23,65,48,38,55,45,38,100,92,61,30.30,30.18,7,1,12,0.02
2012-11-24,63,51,38,55,49,38,100,94,72,30.21,30.06,7,1,12,0.01
2012-11-25,59,53,44,57,52,44,100,96,84,30.06,29.94,8,2,12,0.00
2012-11-26,57,49,39,55,48,39,100,98,91,30.08,29.98,6,2,9,0.01
2012-11-27,60,55,46,54,52,46,100,88,76,30.12,29.97,11,2,18,0.00
2012-11-28,60,58,56,58,55,51,96,89,75,30.02,29.79,27,6,30,1.18
2012-11-29,61,60,58,60,58,55,99,92,82,30.02,29.82,28,13,37,0.58
2012-11-30,60,59,57,60,58,57,100,98,92,29.99,29.77,29,14,41,0.77
2012-12-1,61,59,58,61,58,57,99,96,91,30.03,29.86,25,8,35,0.24
2012-12-2,62,54,43,61,53,43,100,94,73,30.12,29.72,33,9,45,1.07
2012-12-3,57,49,38,51,47,38,100,93,78,30.23,30.12,9,2,10,0.01
2012-12-4,58,54,50,57,53,49,100,94,80,30.23,30.13,15,3,19,0.28
2012-12-5,62,59,55,61,58,55,100,99,96,30.16,30.10,12,2,20,0.04
2012-12-6,58,51,40,55,49,40,100,92,80,30.17,30.09,8,2,12,0.01
2012-12-7,56,44,36,51,42,36,100,95,74,30.19,30.08,5,1,6,0.01
2012-12-8,58,44,35,52,43,35,100,95,73,30.17,30.06,4,1,8,0.02
2012-12-9,61,47,38,53,44,38,100,91,63,30.23,30.12,6,1,8,0.01
2012-12-10,64,48,39,53,45,39,100,91,65,30.27,30.12,5,1,8,0.01
2012-12-11,53,48,40,52,47,41,100,96,83,30.12,29.86,11,3,19,0.12
2012-12-12,53,48,36,49,44,35,99,86,72,29.92,29.85,12,3,20,0.06
2012-12-13,53,40,32,44,37,32,100,91,62,29.98,29.87,7,1,11,0.01
2012-12-14,51,42,33,45,40,33,100,93,68,30.07,29.85,6,1,9,0.01
2012-12-15,48,42,33,46,41,32,100,96,90,30.10,30.01,8,2,14,0.07
2012-12-16,55,51,45,55,49,43,98,94,90,30.12,30.02,17,5,25,0.03
2012-12-17,56,53,44,56,50,38,99,91,80,30.07,29.99,21,6,28,0.04
2012-12-18,51,43,35,42,36,30,92,75,60,30.23,30.03,13,3,20,0.04
2012-12-19,53,38,28,41,33,27,95,82,57,30.35,30.22,6,2,9,0.00
2012-12-20,56,50,38,51,45,35,94,81,70,30.22,29.96,19,8,30,0.19
2012-12-21,56,53,52,54,52,50,99,95,88,29.96,29.84,21,10,34,1.80
2012-12-22,56,53,50,54,48,45,95,84,68,30.06,29.83,20,9,34,0.09
2012-12-23,56,52,43,56,51,43,100,96,85,30.06,29.86,37,8,45,0.84
2012-12-24,54,45,39,50,43,39,100,92,71,30.24,30.05,5,1,6,0.01
2012-12-25,49,45,40,48,44,39,100,96,89,30.17,29.80,8,2,17,1.27
2012-12-26,53,50,45,49,46,42,98,87,79,30.14,29.89,14,5,21,0.19
2012-12-27,54,47,38,47,42,38,99,83,68,30.19,30.13,8,2,12,0.19
2012-12-28,48,43,35,44,41,35,100,92,77,30.20,30.05,6,1,11,0.25
2012-12-29,55,45,36,46,41,36,99,88,57,30.11,30.04,7,2,12,0.36
2012-12-30,53,40,32,46,38,31,100,92,69,30.22,30.09,5,1,9,0.01
2012-12-31,52,40,30,46,38,30,100,91,66,30.33,30.22,7,1,11,0.01
2013-1-1,56,42,33,41,36,31,100,83,43,30.31,30.22,8,2,20,0.01